Weather History for KBKD - November, 2013

Change the Weather History Date:

Saturday, November 16, 2013

  Actual Average (KABI) Record (KABI)
Temperature  
Mean Temperature 74 °F 54 °F  
Max Temperature 85 °F 66 °F 83 °F (1963)
Min Temperature 62 °F 43 °F 19 °F (1932)
Degree Days  
Heating Degree Days 0 11  
Month to date heating degree days 134  
Since 1 July heating degree days 238  
Cooling Degree Days 8 0  
Month to date cooling degree days 15  
Year to date cooling degree days 2404  
Growing Degree Days 24 (Base 50)    
Moisture  
Dew Point 54 °F    
Average Humidity 57    
Maximum Humidity 73    
Minimum Humidity 30    
Precipitation  
Precipitation 0.00 in 0.05 in 1.88 in (1931)
Month to date precipitation 0.87  
Year to date precipitation 23.05  
Sea Level Pressure  
Sea Level Pressure 29.73 in    
Wind  
Wind Speed 16 mph (SSW)    
Max Wind Speed 22 mph    
Max Gust Speed 31 mph    
Visibility 9 miles    
Events      
T = Trace of Precipitation, MM = Missing Value Source: NWS Daily Summary

Daily Weather History Graph

Daily Weather History Graph

Search for Another Location

Airport or City:

Trip Planner

Search our weather history database for the weather conditions in past years. The results will help you decide how hot, cold, wet, or windy it might be!

Date:

Astronomy

Nov. 16, 2013 Rise Set
Actual Time 7:06 AM CST 5:33 PM CST
Civil Twilight 6:40 AM CST 5:59 PM CST
Nautical Twilight 6:10 AM CST 6:29 PM CST
Astronomical Twilight 5:41 AM CST 6:59 PM CST
Moon 5:08 PM CST (11/16) 6:07 AM CST (11/16)
Length of Visible Light 11h 19m
Length of Day
10h 26m
Waxing Gibbous, 99% of the Moon is Illuminated
Nov 16
Waxing Gibbous
Nov 17
Full
Nov 25
Last Quarter
Dec 2
New
Dec 9
First Quarter

Hourly Weather History & Observations

Time (CST) Temp. Heat Index Dew Point Humidity Pressure Visibility Wind Dir Wind Speed Gust Speed Precip Events Conditions
12:15 AM 65.3 °F - 52.7 °F 64% 29.81 in 10.0 mi SSW 16.1 mph 21.9 mph N/A   Clear
12:35 AM 65.7 °F - 52.7 °F 63% 29.81 in 10.0 mi South 16.1 mph 23.0 mph N/A   Clear
12:55 AM 65.1 °F - 52.7 °F 64% 29.81 in 10.0 mi South 17.3 mph 23.0 mph N/A   Clear
1:15 AM 64.8 °F - 52.7 °F 65% 29.79 in 10.0 mi South 17.3 mph 20.7 mph N/A   Clear
1:35 AM 64.0 °F - 52.7 °F 67% 29.79 in 10.0 mi South 15.0 mph - N/A   Clear
1:55 AM 64.4 °F - 52.7 °F 66% 29.80 in 10.0 mi SSW 13.8 mph 18.4 mph N/A   Clear
2:15 AM 63.7 °F - 52.7 °F 67% 29.79 in 10.0 mi South 13.8 mph 19.6 mph N/A   Clear
2:35 AM 63.5 °F - 52.7 °F 68% 29.79 in 10.0 mi South 16.1 mph - N/A   Clear
2:55 AM 63.1 °F - 52.7 °F 69% 29.79 in 10.0 mi South 16.1 mph - N/A   Clear
3:15 AM 62.8 °F - 52.7 °F 70% 29.78 in 10.0 mi South 13.8 mph - N/A   Clear
3:35 AM 62.6 °F - 52.7 °F 70% 29.78 in 10.0 mi SSW 13.8 mph 18.4 mph N/A   Clear
3:55 AM 62.6 °F - 52.7 °F 70% 29.79 in 10.0 mi SSW 12.7 mph 17.3 mph N/A   Clear
4:15 AM 62.4 °F - 52.7 °F 70% 29.77 in 10.0 mi South 13.8 mph 18.4 mph N/A   Clear
4:35 AM 62.2 °F - 52.7 °F 71% 29.77 in 10.0 mi South 16.1 mph - N/A   Clear
4:55 AM 62.1 °F - 52.3 °F 70% 29.78 in 10.0 mi SSW 16.1 mph - N/A   Clear
5:15 AM 62.8 °F - 52.3 °F 69% 29.79 in 10.0 mi SW 11.5 mph 18.4 mph N/A   Clear
5:35 AM 62.6 °F - 52.3 °F 69% 29.79 in 10.0 mi SSW 12.7 mph - N/A   Clear
5:55 AM 63.0 °F - 52.3 °F 68% 29.79 in 10.0 mi SSW 12.7 mph - N/A   Clear
6:15 AM 63.7 °F - 52.5 °F 67% 29.80 in 10.0 mi WSW 8.1 mph - N/A   Clear
6:35 AM 63.7 °F - 52.7 °F 67% 29.81 in 10.0 mi WSW 8.1 mph - N/A   Scattered Clouds
6:55 AM 63.9 °F - 52.3 °F 66% 29.81 in 10.0 mi SW 10.4 mph - N/A   Mostly Cloudy
7:15 AM 63.5 °F - 52.2 °F 67% 29.81 in 10.0 mi North - - N/A   Mostly Cloudy
7:35 AM 62.1 °F - 52.2 °F 70% 29.81 in 10.0 mi South 6.9 mph - N/A   Scattered Clouds
7:55 AM 62.8 °F - 52.3 °F 69% 29.81 in 10.0 mi South 11.5 mph - N/A   Clear
8:15 AM 63.9 °F - 52.5 °F 67% 29.81 in 10.0 mi South 15.0 mph 21.9 mph N/A   Clear
8:35 AM 64.4 °F - 52.7 °F 66% 29.80 in 10.0 mi South 12.7 mph 20.7 mph N/A   Clear
8:55 AM 64.8 °F - 52.9 °F 65% 29.80 in 10.0 mi South 16.1 mph 20.7 mph N/A   Clear
9:15 AM 65.5 °F - 53.1 °F 64% 29.81 in 10.0 mi SSW 15.0 mph 23.0 mph N/A   Clear
9:35 AM 67.1 °F - 53.2 °F 61% 29.81 in 10.0 mi SSW 17.3 mph 23.0 mph N/A   Clear
9:55 AM 68.0 °F - 53.4 °F 60% 29.81 in 10.0 mi SSW 13.8 mph 23.0 mph N/A   Clear
10:15 AM 69.3 °F - 53.6 °F 57% 29.80 in 10.0 mi SSW 16.1 mph 23.0 mph N/A   Clear
10:35 AM 72.5 °F - 53.4 °F 51% 29.79 in 10.0 mi SSW 17.3 mph 26.5 mph N/A   Clear
10:55 AM 71.1 °F - 52.9 °F 53% 29.79 in 10.0 mi SSW 18.4 mph 28.8 mph N/A   Clear
11:15 AM 72.9 °F - 52.9 °F 49% 29.78 in 10.0 mi SSW 18.4 mph 26.5 mph N/A   Clear
11:35 AM 72.5 °F - 53.1 °F 50% 29.77 in 10.0 mi SSW 17.3 mph 26.5 mph N/A   Clear
11:55 AM 72.5 °F - 53.6 °F 51% 29.76 in 10.0 mi SSW 15.0 mph 20.7 mph N/A   Mostly Cloudy
12:15 PM 76.1 °F - 53.1 °F 45% 29.74 in 10.0 mi SW 15.0 mph 20.7 mph N/A   Mostly Cloudy
12:35 PM 77.5 °F - 52.2 °F 41% 29.73 in 10.0 mi SSW 17.3 mph 25.3 mph N/A   Overcast
12:55 PM 77.2 °F - 52.5 °F 42% 29.71 in 10.0 mi SSW 17.3 mph 21.9 mph N/A   Overcast
1:15 PM 78.6 °F - 51.8 °F 39% 29.70 in 10.0 mi SW 20.7 mph 31.1 mph N/A   Overcast
1:35 PM 81.0 °F - 52.2 °F 37% 29.69 in 10.0 mi SW 15.0 mph - N/A   Overcast
1:55 PM 82.4 °F - 52.2 °F 35% 29.68 in 5.0 mi SSW 15.0 mph 24.2 mph N/A   Haze
2:15 PM 83.3 °F - 51.6 °F 33% 29.67 in 5.0 mi SW 16.1 mph 25.3 mph N/A   Haze
2:35 PM 84.2 °F - 52.0 °F 33% 29.66 in 5.0 mi SSW 16.1 mph 26.5 mph N/A   Haze
2:55 PM 84.2 °F - 51.8 °F 33% 29.65 in 7.0 mi SSW 19.6 mph 27.6 mph N/A   Clear
3:15 PM 85.1 °F - 52.0 °F 32% 29.64 in 5.0 mi South 18.4 mph 26.5 mph N/A   Haze
3:35 PM 84.7 °F - 52.0 °F 32% 29.63 in 5.0 mi South 18.4 mph 27.6 mph N/A   Haze
3:55 PM 85.3 °F - 50.9 °F 30% 29.63 in 5.0 mi SW 21.9 mph 26.5 mph N/A   Haze
4:15 PM 85.1 °F - 50.9 °F 31% 29.63 in 5.0 mi SSW 18.4 mph 23.0 mph N/A   Haze
4:35 PM 84.2 °F - 51.1 °F 32% 29.63 in 5.0 mi SSW 18.4 mph 25.3 mph N/A   Haze
4:55 PM 83.3 °F - 51.1 °F 33% 29.64 in 5.0 mi SSW 18.4 mph 26.5 mph N/A   Haze
5:15 PM 81.9 °F - 52.5 °F 36% 29.64 in 5.0 mi South 12.7 mph 21.9 mph N/A   Haze
5:35 PM 80.1 °F 80.1 °F 54.5 °F 41% 29.64 in 5.0 mi South 17.3 mph 23.0 mph N/A   Haze
5:55 PM 78.4 °F - 55.0 °F 44% 29.65 in 7.0 mi South 16.1 mph 21.9 mph N/A   Clear
6:15 PM 77.9 °F - 55.4 °F 46% 29.65 in 7.0 mi South 18.4 mph 24.2 mph N/A   Clear
6:35 PM 76.8 °F - 55.6 °F 48% 29.66 in 10.0 mi South 13.8 mph - N/A   Clear
6:55 PM 75.4 °F - 56.1 °F 51% 29.66 in 10.0 mi South 17.3 mph 23.0 mph N/A   Clear
7:15 PM 74.5 °F - 56.7 °F 54% 29.67 in 10.0 mi South 16.1 mph 21.9 mph N/A   Clear
7:35 PM 73.6 °F - 57.4 °F 57% 29.68 in 10.0 mi South 17.3 mph 23.0 mph N/A   Clear
7:55 PM 73.2 °F - 57.9 °F 59% 29.68 in 10.0 mi South 13.8 mph 19.6 mph N/A   Clear
8:15 PM 72.7 °F - 58.5 °F 61% 29.69 in 10.0 mi South 17.3 mph 25.3 mph N/A   Clear
8:35 PM 72.1 °F - 58.8 °F 63% 29.69 in 10.0 mi South 17.3 mph 23.0 mph N/A   Clear
8:55 PM 71.8 °F - 59.0 °F 64% 29.69 in 10.0 mi SSW 18.4 mph 24.2 mph N/A   Clear
9:15 PM 71.6 °F - 59.0 °F 64% 29.69 in 10.0 mi SSW 17.3 mph 25.3 mph N/A   Clear
9:35 PM 71.2 °F - 59.2 °F 66% 29.69 in 10.0 mi SSW 15.0 mph 20.7 mph N/A   Clear
9:55 PM 70.7 °F - 59.4 °F 67% 29.70 in 10.0 mi SSW 16.1 mph 23.0 mph N/A   Clear
10:15 PM 70.5 °F - 59.7 °F 69% 29.70 in 10.0 mi SSW 17.3 mph 21.9 mph N/A   Clear
10:35 PM 70.0 °F - 59.9 °F 70% 29.70 in 10.0 mi SSW 16.1 mph 24.2 mph N/A   Clear
10:55 PM 69.8 °F - 59.9 °F 71% 29.70 in 10.0 mi SSW 16.1 mph 21.9 mph N/A   Clear
11:15 PM 69.4 °F - 59.9 °F 72% 29.70 in 10.0 mi SSW 17.3 mph 24.2 mph N/A   Clear
11:35 PM 69.3 °F - 60.1 °F 72% 29.70 in 10.0 mi SSW 20.7 mph 25.3 mph N/A   Clear
11:55 PM 69.1 °F - 60.3 °F 73% 29.70 in 10.0 mi SSW 18.4 mph - N/A   Clear